RYR37VB EHEH-LPPR

Flight info

Callsign RYR37VB
Flight time 2h 17m
Altitude 35000
Route WOODY N872 MEDIL/N0443F370 DCT KOVIN DCT NIDUV DCT KIHVI UN872 TERPO/N0439F350 UN872 ERIGA UZ218 FUJTI DCT ATLEN DCT INSID T326 ASPOR
Aircraft B738/M-SDE2E3FGHIRWXY/LB1

Departure

Time 2026-05-04 18:13
Airport Eindhoven Airport (EHEH)

Arrival

Time 2026-05-04 20:31
Airport Francisco de Sá Carneiro Airport (LPPR)
Time Latitude Longitude Altitude Speed Heading
2026-05-04 17:34 51.45752 5.38939 74 ft 0 kts 125°
2026-05-04 18:06 51.45767 5.38908 61 ft 4 kts 129°
2026-05-04 18:06 51.45781 5.38876 74 ft 2 kts 115°
2026-05-04 18:06 51.45787 5.38844 74 ft 4 kts 77°
2026-05-04 18:07 51.45774 5.38813 65 ft 4 kts 35°
2026-05-04 18:07 51.45765 5.38804 74 ft 0 kts 35°
2026-05-04 18:10 51.45767 5.38806 74 ft 2 kts 35°
2026-05-04 18:11 51.45801 5.38844 74 ft 11 kts 35°
2026-05-04 18:11 51.45881 5.38934 71 ft 16 kts 35°
2026-05-04 18:11 51.45949 5.38988 74 ft 10 kts 356°
2026-05-04 18:11 51.45999 5.38922 62 ft 10 kts 304°
2026-05-04 18:12 51.46036 5.38836 67 ft 9 kts 305°
2026-05-04 18:12 51.46073 5.38753 70 ft 9 kts 305°
2026-05-04 18:12 51.46092 5.38666 67 ft 9 kts 243°
2026-05-04 18:12 51.46039 5.38602 69 ft 12 kts 215°
2026-05-04 18:13 51.45832 5.38370 65 ft 74 kts 215°
2026-05-04 18:13 51.45254 5.37722 65 ft 140 kts 215°
2026-05-04 18:13 51.43420 5.35623 1293 ft 170 kts 220°
2026-05-04 18:14 51.42759 5.34051 1995 ft 179 kts 254°
2026-05-04 18:14 51.42791 5.32096 2808 ft 175 kts 292°
2026-05-04 18:14 51.43538 5.30491 3418 ft 194 kts 323°
2026-05-04 18:15 51.46369 5.28989 4169 ft 235 kts 343°
2026-05-04 18:15 51.49090 5.26234 5646 ft 252 kts 298°
2026-05-04 18:15 51.49614 5.23387 5995 ft 277 kts 282°
2026-05-04 18:16 51.50062 5.20452 6904 ft 277 kts 287°
2026-05-04 18:16 51.50596 5.17441 7724 ft 280 kts 285°
2026-05-04 18:16 51.51080 5.14443 8542 ft 283 kts 285°
2026-05-04 18:17 51.52140 5.08271 10302 ft 291 kts 285°
2026-05-04 18:17 51.52651 5.05003 10561 ft 316 kts 284°
2026-05-04 18:17 51.53946 4.97762 11249 ft 350 kts 285°
2026-05-04 18:18 51.54587 4.93965 11964 ft 354 kts 285°
2026-05-04 18:18 51.55228 4.90138 12756 ft 356 kts 285°
2026-05-04 18:18 51.55826 4.86246 13517 ft 361 kts 278°
2026-05-04 18:18 51.55704 4.82234 14243 ft 364 kts 258°
2026-05-04 18:19 51.54572 4.74213 15731 ft 372 kts 257°
2026-05-04 18:19 51.53994 4.70138 16470 ft 376 kts 257°
2026-05-04 18:19 51.53420 4.66019 17208 ft 380 kts 257°
2026-05-04 18:20 51.52847 4.61864 17923 ft 384 kts 258°
2026-05-04 18:20 51.52271 4.57654 18574 ft 388 kts 257°
2026-05-04 18:20 51.51689 4.53406 19223 ft 391 kts 257°
2026-05-04 18:20 51.51075 4.49153 19879 ft 392 kts 252°
2026-05-04 18:21 51.49840 4.45259 20474 ft 395 kts 231°
2026-05-04 18:21 51.47857 4.42218 21097 ft 397 kts 213°
2026-05-04 18:21 51.45397 4.40152 21648 ft 400 kts 203°
2026-05-04 18:21 51.42850 4.38309 22297 ft 402 kts 204°
2026-05-04 18:22 51.40299 4.36432 22938 ft 405 kts 204°
2026-05-04 18:22 51.37743 4.34512 23518 ft 408 kts 204°
2026-05-04 18:22 51.35172 4.32557 24038 ft 410 kts 204°
2026-05-04 18:22 51.32588 4.30589 24535 ft 413 kts 205°
2026-05-04 18:23 51.29984 4.28628 25030 ft 415 kts 204°
2026-05-04 18:23 51.27365 4.26624 25545 ft 419 kts 206°
2026-05-04 18:23 51.24753 4.24502 26120 ft 422 kts 203°
2026-05-04 18:23 51.22059 4.22672 26627 ft 421 kts 202°
2026-05-04 18:24 51.19404 4.20675 26975 ft 424 kts 206°
2026-05-04 18:24 51.16747 4.18579 27319 ft 426 kts 204°
2026-05-04 18:24 51.13960 4.16882 27710 ft 431 kts 199°
2026-05-04 18:24 51.11126 4.15329 28200 ft 430 kts 199°
2026-05-04 18:25 51.08287 4.13828 28583 ft 433 kts 199°
2026-05-04 18:25 51.05416 4.12305 28959 ft 435 kts 199°
2026-05-04 18:25 51.02544 4.10752 29344 ft 437 kts 199°
2026-05-04 18:25 50.99665 4.09177 29792 ft 438 kts 199°
2026-05-04 18:26 50.96797 4.07605 30329 ft 435 kts 199°
2026-05-04 18:26 50.93952 4.06048 30914 ft 430 kts 199°
2026-05-04 18:26 50.91136 4.04514 31513 ft 425 kts 199°
2026-05-04 18:26 50.88350 4.02999 32069 ft 422 kts 199°
2026-05-04 18:27 50.85611 4.01390 32586 ft 419 kts 201°
2026-05-04 18:27 50.82920 3.99675 33104 ft 415 kts 202°
2026-05-04 18:27 50.80255 3.97932 33597 ft 413 kts 202°
2026-05-04 18:27 50.77616 3.96205 34133 ft 408 kts 202°
2026-05-04 18:28 50.74996 3.94504 34489 ft 408 kts 202°
2026-05-04 18:28 50.72361 3.92807 34685 ft 411 kts 202°
2026-05-04 18:28 50.69697 3.91103 34900 ft 413 kts 202°
2026-05-04 18:28 50.67066 3.89426 35214 ft 413 kts 202°
2026-05-04 18:29 50.64402 3.87730 35512 ft 413 kts 202°
2026-05-04 18:29 50.61736 3.86036 35746 ft 415 kts 202°
2026-05-04 18:29 50.59054 3.84335 36009 ft 415 kts 202°
2026-05-04 18:29 50.56371 3.82628 36280 ft 416 kts 203°
2026-05-04 18:30 50.51054 3.79011 36810 ft 417 kts 204°
2026-05-04 18:30 50.48393 3.77167 36973 ft 421 kts 204°
2026-05-04 18:31 50.42998 3.73463 36948 ft 423 kts 204°
2026-05-04 18:31 50.37640 3.69821 36947 ft 416 kts 204°
2026-05-04 18:32 50.32327 3.66222 36949 ft 417 kts 204°
2026-05-04 18:32 50.26997 3.62626 36959 ft 418 kts 204°
2026-05-04 18:33 50.21652 3.59025 36953 ft 419 kts 204°
2026-05-04 18:33 50.16287 3.55418 36949 ft 420 kts 204°
2026-05-04 18:34 50.10911 3.51814 36946 ft 421 kts 204°
2026-05-04 18:34 50.05522 3.48208 36945 ft 421 kts 204°
2026-05-04 18:35 50.00148 3.44619 36938 ft 422 kts 204°
2026-05-04 18:35 49.94744 3.41022 36939 ft 422 kts 204°
2026-05-04 18:36 49.89345 3.37438 36948 ft 422 kts 204°
2026-05-04 18:36 49.83941 3.33858 36934 ft 422 kts 204°
2026-05-04 18:37 49.78544 3.30290 36937 ft 421 kts 204°
2026-05-04 18:37 49.73160 3.26739 36938 ft 420 kts 204°
2026-05-04 18:38 49.67774 3.23197 36930 ft 419 kts 204°
2026-05-04 18:38 49.62448 3.19702 36936 ft 418 kts 204°
2026-05-04 18:39 49.57093 3.16195 36923 ft 417 kts 204°
2026-05-04 18:39 49.51782 3.12627 36929 ft 417 kts 210°
2026-05-04 18:39 49.49415 3.10070 36962 ft 416 kts 221°
2026-05-04 18:40 49.47370 3.06924 36928 ft 417 kts 229°
2026-05-04 18:40 49.44298 2.99362 36928 ft 419 kts 239°
2026-05-04 18:41 49.41483 2.91565 36931 ft 419 kts 239°
2026-05-04 18:41 49.38605 2.83765 36936 ft 420 kts 239°
2026-05-04 18:42 49.35702 2.75990 36935 ft 420 kts 239°
2026-05-04 18:42 49.32840 2.68187 36933 ft 421 kts 240°
2026-05-04 18:43 49.30082 2.60282 36937 ft 422 kts 240°
2026-05-04 18:43 49.27312 2.52357 36935 ft 422 kts 240°
2026-05-04 18:44 49.24523 2.44455 36943 ft 422 kts 240°
2026-05-04 18:44 49.21723 2.36560 36937 ft 422 kts 240°
2026-05-04 18:45 49.18903 2.28670 36937 ft 423 kts 239°
2026-05-04 18:45 49.16033 2.20908 36948 ft 422 kts 239°
2026-05-04 18:46 49.13135 2.13105 36938 ft 423 kts 239°
2026-05-04 18:46 49.10239 2.05293 36948 ft 423 kts 239°
2026-05-04 18:47 49.07624 1.97261 36947 ft 423 kts 244°
2026-05-04 18:47 49.05199 1.89073 36942 ft 423 kts 244°
2026-05-04 18:48 49.02767 1.80899 36937 ft 423 kts 244°
2026-05-04 18:48 49.00320 1.72773 36953 ft 422 kts 243°
2026-05-04 18:49 48.97859 1.64662 36947 ft 422 kts 243°
2026-05-04 18:49 48.95394 1.56574 36954 ft 421 kts 243°
2026-05-04 18:50 48.92923 1.48491 36956 ft 421 kts 243°
2026-05-04 18:50 48.90452 1.40431 36959 ft 421 kts 243°
2026-05-04 18:51 48.87975 1.32380 36962 ft 420 kts 243°
2026-05-04 18:51 48.85490 1.24325 36966 ft 421 kts 243°
2026-05-04 18:52 48.82998 1.16274 36960 ft 422 kts 243°
2026-05-04 18:52 48.80496 1.08216 36954 ft 423 kts 243°
2026-05-04 18:53 48.77981 1.00140 36954 ft 423 kts 243°
2026-05-04 18:53 48.75884 0.93427 36948 ft 424 kts 243°
2026-05-04 18:54 48.72726 0.84233 36958 ft 423 kts 237°
2026-05-04 18:54 48.69615 0.76676 36950 ft 424 kts 236°
2026-05-04 18:55 48.67003 0.70392 36949 ft 424 kts 236°
2026-05-04 18:55 48.62338 0.59009 36949 ft 424 kts 236°
2026-05-04 18:56 48.59240 0.51421 36942 ft 424 kts 236°
2026-05-04 18:56 48.56136 0.43836 36937 ft 424 kts 236°
2026-05-04 18:57 48.53030 0.36270 36937 ft 424 kts 236°
2026-05-04 18:57 48.49922 0.28718 36943 ft 423 kts 236°
2026-05-04 18:58 48.46815 0.21194 36942 ft 423 kts 236°
2026-05-04 18:58 48.43699 0.13669 36948 ft 423 kts 236°
2026-05-04 18:59 48.40587 0.06170 36947 ft 422 kts 236°
2026-05-04 18:59 48.37472 -0.01318 36968 ft 422 kts 236°
2026-05-04 19:00 48.34169 -0.08622 36960 ft 422 kts 231°
2026-05-04 19:00 48.30625 -0.15658 36948 ft 423 kts 231°
2026-05-04 19:01 48.27094 -0.22730 36949 ft 424 kts 231°
2026-05-04 19:01 48.23548 -0.29803 36944 ft 424 kts 230°
2026-05-04 19:02 48.19952 -0.36831 36947 ft 425 kts 230°
2026-05-04 19:02 48.16350 -0.43846 36941 ft 425 kts 230°
2026-05-04 19:03 48.12740 -0.50875 36941 ft 425 kts 230°
2026-05-04 19:03 48.09159 -0.57839 36941 ft 425 kts 230°
2026-05-04 19:04 48.05546 -0.64847 36940 ft 426 kts 230°
2026-05-04 19:04 48.01928 -0.71845 36940 ft 425 kts 230°
2026-05-04 19:05 47.98312 -0.78824 36938 ft 425 kts 230°
2026-05-04 19:05 47.94700 -0.85780 36955 ft 424 kts 230°
2026-05-04 19:06 47.91080 -0.92730 36942 ft 425 kts 230°
2026-05-04 19:06 47.87451 -0.99682 36944 ft 425 kts 230°
2026-05-04 19:07 47.83814 -1.06630 36943 ft 425 kts 230°
2026-05-04 19:07 47.80178 -1.13557 36945 ft 425 kts 230°
2026-05-04 19:08 47.76534 -1.20483 36944 ft 425 kts 229°
2026-05-04 19:08 47.72884 -1.27401 36958 ft 425 kts 230°
2026-05-04 19:09 47.69226 -1.34323 36944 ft 426 kts 230°
2026-05-04 19:09 47.65584 -1.41196 36940 ft 427 kts 230°
2026-05-04 19:10 47.61910 -1.48111 36947 ft 427 kts 229°
2026-05-04 19:10 47.58143 -1.54929 36942 ft 427 kts 226°
2026-05-04 19:11 47.54160 -1.61440 36941 ft 427 kts 225°
2026-05-04 19:11 47.50158 -1.67930 36963 ft 427 kts 226°
2026-05-04 19:12 47.44176 -1.77719 36952 ft 428 kts 226°
2026-05-04 19:13 47.40183 -1.84254 36961 ft 429 kts 226°
2026-05-04 19:13 47.36174 -1.90773 36963 ft 429 kts 224°
2026-05-04 19:14 47.31483 -1.96112 36969 ft 426 kts 210°
2026-05-04 19:14 47.26391 -2.00582 36963 ft 427 kts 210°
2026-05-04 19:15 47.21291 -2.05066 36969 ft 427 kts 210°
2026-05-04 19:15 47.16187 -2.09594 36969 ft 428 kts 210°
2026-05-04 19:16 47.11086 -2.14132 36977 ft 429 kts 210°
2026-05-04 19:16 47.05974 -2.18671 36974 ft 430 kts 210°
2026-05-04 19:17 47.00860 -2.23201 36975 ft 430 kts 210°
2026-05-04 19:17 46.95762 -2.27704 36974 ft 431 kts 210°
2026-05-04 19:18 46.90626 -2.32234 36974 ft 431 kts 210°
2026-05-04 19:18 46.85492 -2.36750 36976 ft 431 kts 210°
2026-05-04 19:19 46.80354 -2.41260 36974 ft 431 kts 210°
2026-05-04 19:19 46.75221 -2.45757 36975 ft 430 kts 210°
2026-05-04 19:20 46.70089 -2.50245 36980 ft 430 kts 210°
2026-05-04 19:20 46.64954 -2.54725 36969 ft 430 kts 210°
2026-05-04 19:21 46.59815 -2.59201 36990 ft 430 kts 210°
2026-05-04 19:21 46.54706 -2.63641 36979 ft 431 kts 210°
2026-05-04 19:22 46.49561 -2.68100 36979 ft 431 kts 210°
2026-05-04 19:22 46.44419 -2.72548 36987 ft 430 kts 210°
2026-05-04 19:23 46.39271 -2.76993 36984 ft 430 kts 210°
2026-05-04 19:23 46.34132 -2.81418 37004 ft 429 kts 210°
2026-05-04 19:24 46.28997 -2.85832 36987 ft 429 kts 210°
2026-05-04 19:24 46.24105 -2.90720 36998 ft 429 kts 219°
2026-05-04 19:25 46.19563 -2.96338 36981 ft 429 kts 220°
2026-05-04 19:25 46.15047 -3.01953 36987 ft 429 kts 219°
2026-05-04 19:26 46.10508 -3.07520 36989 ft 428 kts 219°
2026-05-04 19:26 46.05957 -3.13055 37001 ft 428 kts 219°
2026-05-04 19:27 46.01426 -3.18544 37008 ft 428 kts 219°
2026-05-04 19:27 45.96864 -3.24057 36992 ft 429 kts 219°
2026-05-04 19:28 45.92282 -3.29581 36992 ft 430 kts 219°
2026-05-04 19:28 45.87695 -3.35103 37001 ft 430 kts 219°
2026-05-04 19:29 45.83100 -3.40621 36998 ft 431 kts 219°
2026-05-04 19:29 45.78498 -3.46137 37002 ft 431 kts 219°
2026-05-04 19:30 45.73884 -3.51652 37005 ft 432 kts 219°
2026-05-04 19:30 45.69263 -3.57163 37001 ft 433 kts 219°
2026-05-04 19:31 45.64639 -3.62667 37003 ft 433 kts 219°
2026-05-04 19:31 45.60005 -3.68169 37003 ft 432 kts 219°
2026-05-04 19:32 45.55383 -3.73646 37005 ft 431 kts 219°
2026-05-04 19:32 45.50762 -3.79109 37000 ft 431 kts 219°
2026-05-04 19:33 45.46145 -3.84555 37007 ft 430 kts 219°
2026-05-04 19:33 45.41534 -3.89981 37012 ft 430 kts 219°
2026-05-04 19:34 45.36950 -3.95361 37004 ft 430 kts 219°
2026-05-04 19:34 45.32328 -4.00780 37004 ft 430 kts 219°
2026-05-04 19:35 45.27706 -4.06189 37016 ft 430 kts 219°
2026-05-04 19:35 45.23077 -4.11591 37009 ft 431 kts 219°
2026-05-04 19:36 45.18446 -4.16980 37010 ft 431 kts 219°
2026-05-04 19:36 45.13812 -4.22364 37011 ft 431 kts 219°
2026-05-04 19:37 45.09175 -4.27740 37012 ft 431 kts 219°
2026-05-04 19:37 45.04543 -4.33098 37013 ft 430 kts 219°
2026-05-04 19:38 44.99939 -4.38412 37010 ft 430 kts 219°
2026-05-04 19:38 44.95305 -4.43748 37011 ft 430 kts 219°
2026-05-04 19:39 44.90669 -4.49078 37010 ft 429 kts 219°
2026-05-04 19:39 44.86043 -4.54383 37013 ft 429 kts 219°
2026-05-04 19:40 44.81411 -4.59683 37020 ft 429 kts 219°
2026-05-04 19:40 44.76781 -4.64971 37015 ft 429 kts 219°
2026-05-04 19:41 44.72143 -4.70256 37017 ft 429 kts 219°
2026-05-04 19:41 44.67501 -4.75536 37019 ft 429 kts 219°
2026-05-04 19:42 44.62854 -4.80810 37020 ft 430 kts 219°
2026-05-04 19:42 44.58248 -4.86152 37018 ft 430 kts 221°
2026-05-04 19:43 44.54532 -4.90774 37013 ft 430 kts 222°
2026-05-04 19:43 44.50072 -4.96371 37023 ft 431 kts 222°
2026-05-04 19:44 44.45580 -5.01948 37016 ft 431 kts 222°
2026-05-04 19:44 44.41077 -5.07497 37020 ft 431 kts 221°
2026-05-04 19:45 44.36567 -5.13029 37021 ft 432 kts 221°
2026-05-04 19:45 44.32045 -5.18563 37017 ft 432 kts 221°
2026-05-04 19:46 44.27522 -5.24087 37019 ft 432 kts 221°
2026-05-04 19:46 44.23026 -5.29562 37020 ft 431 kts 221°
2026-05-04 19:47 44.18510 -5.35052 37031 ft 431 kts 222°
2026-05-04 19:47 44.13989 -5.40537 37023 ft 431 kts 221°
2026-05-04 19:48 44.09473 -5.46006 37024 ft 431 kts 221°
2026-05-04 19:48 44.04946 -5.51477 37029 ft 431 kts 221°
2026-05-04 19:49 44.00418 -5.56935 37032 ft 431 kts 221°
2026-05-04 19:49 43.95891 -5.62383 37031 ft 431 kts 221°
2026-05-04 19:50 43.91356 -5.67827 37035 ft 431 kts 221°
2026-05-04 19:50 43.86819 -5.73263 37026 ft 431 kts 222°
2026-05-04 19:51 43.82281 -5.78690 37043 ft 431 kts 222°
2026-05-04 19:51 43.77771 -5.84072 37044 ft 431 kts 222°
2026-05-04 19:52 43.73195 -5.89522 37040 ft 431 kts 222°
2026-05-04 19:52 43.68675 -5.94893 37054 ft 431 kts 222°
2026-05-04 19:53 43.64118 -6.00294 37050 ft 431 kts 222°
2026-05-04 19:53 43.59568 -6.05679 37054 ft 431 kts 222°
2026-05-04 19:54 43.55017 -6.11055 37049 ft 431 kts 222°
2026-05-04 19:54 43.50466 -6.16419 37050 ft 431 kts 222°
2026-05-04 19:55 43.45903 -6.21787 37040 ft 431 kts 222°
2026-05-04 19:55 43.41339 -6.27141 37065 ft 431 kts 222°
2026-05-04 19:56 43.36770 -6.32492 37045 ft 431 kts 222°
2026-05-04 19:56 43.32199 -6.37833 37068 ft 431 kts 222°
2026-05-04 19:57 43.27625 -6.43169 37061 ft 431 kts 222°
2026-05-04 19:57 43.23055 -6.48492 37055 ft 431 kts 222°
2026-05-04 19:58 43.18489 -6.53795 37072 ft 430 kts 222°
2026-05-04 19:58 43.13911 -6.59102 37074 ft 430 kts 222°
2026-05-04 19:59 43.09336 -6.64396 37080 ft 431 kts 222°
2026-05-04 19:59 43.04778 -6.69661 37081 ft 431 kts 222°
2026-05-04 20:00 43.00191 -6.74945 37071 ft 431 kts 223°
2026-05-04 20:00 42.95600 -6.80224 37080 ft 431 kts 222°
2026-05-04 20:01 42.91016 -6.85484 37075 ft 431 kts 223°
2026-05-04 20:01 42.86426 -6.90742 37085 ft 431 kts 223°
2026-05-04 20:02 42.81833 -6.95991 37085 ft 431 kts 223°
2026-05-04 20:02 42.77242 -7.01229 37084 ft 431 kts 223°
2026-05-04 20:03 42.72649 -7.06459 37085 ft 430 kts 223°
2026-05-04 20:03 42.68057 -7.11677 37080 ft 430 kts 223°
2026-05-04 20:04 42.63469 -7.16880 37085 ft 429 kts 223°
2026-05-04 20:04 42.58881 -7.22072 37094 ft 429 kts 223°
2026-05-04 20:05 42.54333 -7.27211 37049 ft 429 kts 223°
2026-05-04 20:05 42.52032 -7.29808 36613 ft 431 kts 223°
2026-05-04 20:05 42.49735 -7.32397 36090 ft 428 kts 223°
2026-05-04 20:05 42.47449 -7.34970 35543 ft 427 kts 223°
2026-05-04 20:06 42.45164 -7.37541 34965 ft 427 kts 223°
2026-05-04 20:06 42.42876 -7.40108 34322 ft 429 kts 223°
2026-05-04 20:06 42.40571 -7.42694 33603 ft 431 kts 223°
2026-05-04 20:06 42.38260 -7.45282 32911 ft 431 kts 223°
2026-05-04 20:07 42.35958 -7.47858 32211 ft 430 kts 223°
2026-05-04 20:07 42.33655 -7.50432 31538 ft 428 kts 223°
2026-05-04 20:07 42.31364 -7.52993 30855 ft 427 kts 223°
2026-05-04 20:07 42.29078 -7.55546 30168 ft 427 kts 223°
2026-05-04 20:08 42.26797 -7.58089 29565 ft 421 kts 223°
2026-05-04 20:08 42.24555 -7.60586 28983 ft 415 kts 223°
2026-05-04 20:08 42.22347 -7.63043 28458 ft 408 kts 223°
2026-05-04 20:08 42.20173 -7.65459 27940 ft 402 kts 224°
2026-05-04 20:09 42.18028 -7.67845 27440 ft 396 kts 223°
2026-05-04 20:09 42.15913 -7.70194 26933 ft 391 kts 223°
2026-05-04 20:09 42.13835 -7.72499 26423 ft 387 kts 224°
2026-05-04 20:09 42.11766 -7.74793 25976 ft 385 kts 224°
2026-05-04 20:10 42.09685 -7.77103 25490 ft 392 kts 224°
2026-05-04 20:10 42.07582 -7.79434 24985 ft 389 kts 224°
2026-05-04 20:10 42.05506 -7.81728 24495 ft 384 kts 224°
2026-05-04 20:10 42.03451 -7.83996 24012 ft 380 kts 224°
2026-05-04 20:11 42.01419 -7.86238 23516 ft 376 kts 224°
2026-05-04 20:11 41.99411 -7.88452 22972 ft 372 kts 224°
2026-05-04 20:11 41.97425 -7.90641 22479 ft 367 kts 224°
2026-05-04 20:11 41.95461 -7.92802 22001 ft 363 kts 223°
2026-05-04 20:12 41.93523 -7.94933 21552 ft 358 kts 223°
2026-05-04 20:12 41.91605 -7.97043 21067 ft 354 kts 224°
2026-05-04 20:12 41.89729 -7.99106 20633 ft 352 kts 224°
2026-05-04 20:12 41.87810 -8.01218 20195 ft 361 kts 224°
2026-05-04 20:13 41.85851 -8.03371 19728 ft 367 kts 223°
2026-05-04 20:13 41.83870 -8.05541 19241 ft 366 kts 223°
2026-05-04 20:13 41.81901 -8.07694 18765 ft 364 kts 222°
2026-05-04 20:13 41.79817 -8.09621 18318 ft 365 kts 214°
2026-05-04 20:14 41.77582 -8.11234 17832 ft 363 kts 211°
2026-05-04 20:14 41.75356 -8.12793 17380 ft 359 kts 212°
2026-05-04 20:14 41.73161 -8.14382 16925 ft 357 kts 212°
2026-05-04 20:14 41.70995 -8.15987 16489 ft 355 kts 212°
2026-05-04 20:15 41.68771 -8.17407 16022 ft 358 kts 205°
2026-05-04 20:15 41.66423 -8.18515 15586 ft 358 kts 202°
2026-05-04 20:15 41.64050 -8.19529 15145 ft 357 kts 201°
2026-05-04 20:15 41.61694 -8.20528 14706 ft 355 kts 201°
2026-05-04 20:16 41.59348 -8.21547 14268 ft 354 kts 202°
2026-05-04 20:16 41.57011 -8.22586 13823 ft 353 kts 202°
2026-05-04 20:16 41.54684 -8.23636 13325 ft 352 kts 202°
2026-05-04 20:16 41.52370 -8.24687 12816 ft 352 kts 202°
2026-05-04 20:17 41.50063 -8.25739 12336 ft 350 kts 202°
2026-05-04 20:17 41.47766 -8.26786 11866 ft 345 kts 202°
2026-05-04 20:17 41.45507 -8.27814 11438 ft 340 kts 202°
2026-05-04 20:17 41.43274 -8.28834 11017 ft 337 kts 202°
2026-05-04 20:18 41.41066 -8.29837 10609 ft 335 kts 202°
2026-05-04 20:18 41.38929 -8.30806 10469 ft 323 kts 202°
2026-05-04 20:18 41.36833 -8.31752 10328 ft 313 kts 202°
2026-05-04 20:18 41.34804 -8.32669 10181 ft 304 kts 202°
2026-05-04 20:19 41.32833 -8.33560 10058 ft 296 kts 202°
2026-05-04 20:19 41.30903 -8.34435 9809 ft 292 kts 202°
2026-05-04 20:19 41.28987 -8.35306 9483 ft 291 kts 202°
2026-05-04 20:19 41.27086 -8.36168 9192 ft 289 kts 202°
2026-05-04 20:20 41.25185 -8.37029 8891 ft 288 kts 202°
2026-05-04 20:20 41.23291 -8.37885 8589 ft 286 kts 202°
2026-05-04 20:20 41.21411 -8.38734 8287 ft 285 kts 202°
2026-05-04 20:20 41.19537 -8.39580 7988 ft 284 kts 202°
2026-05-04 20:21 41.17665 -8.40425 7695 ft 283 kts 202°
2026-05-04 20:21 41.15798 -8.41268 7394 ft 283 kts 202°
2026-05-04 20:21 41.12080 -8.42942 6814 ft 282 kts 202°
2026-05-04 20:22 41.10231 -8.43776 6519 ft 281 kts 202°
2026-05-04 20:22 41.08385 -8.44607 6217 ft 280 kts 202°
2026-05-04 20:22 41.06547 -8.45433 5931 ft 278 kts 201°
2026-05-04 20:22 41.04718 -8.46255 5644 ft 276 kts 201°
2026-05-04 20:23 41.02944 -8.47049 5525 ft 268 kts 202°
2026-05-04 20:23 41.01287 -8.48054 5401 ft 256 kts 223°
2026-05-04 20:23 41.00230 -8.49855 5341 ft 239 kts 247°
2026-05-04 20:23 40.99743 -8.51868 5230 ft 225 kts 263°
2026-05-04 20:24 40.99461 -8.53871 5156 ft 217 kts 262°
2026-05-04 20:24 40.99185 -8.55777 5087 ft 205 kts 262°
2026-05-04 20:24 40.98920 -8.57583 4987 ft 194 kts 263°
2026-05-04 20:24 40.98786 -8.59307 4791 ft 183 kts 283°
2026-05-04 20:25 40.99327 -8.60730 4663 ft 170 kts 313°
2026-05-04 20:25 41.00274 -8.61600 4439 ft 165 kts 339°
2026-05-04 20:25 41.01367 -8.61942 4283 ft 162 kts 346°
2026-05-04 20:25 41.02465 -8.62244 4099 ft 161 kts 345°
2026-05-04 20:26 41.03565 -8.62545 3925 ft 161 kts 346°
2026-05-04 20:26 41.04672 -8.62843 3750 ft 162 kts 346°
2026-05-04 20:26 41.05771 -8.63139 3587 ft 162 kts 346°
2026-05-04 20:26 41.06882 -8.63434 3402 ft 164 kts 346°
2026-05-04 20:27 41.07995 -8.63725 3209 ft 162 kts 346°
2026-05-04 20:27 41.09092 -8.64011 3015 ft 161 kts 346°
2026-05-04 20:27 41.10196 -8.64303 2821 ft 162 kts 347°
2026-05-04 20:27 41.11294 -8.64589 2609 ft 163 kts 347°
2026-05-04 20:28 41.12398 -8.64876 2385 ft 160 kts 347°
2026-05-04 20:28 41.13483 -8.65162 2177 ft 158 kts 347°
2026-05-04 20:28 41.14562 -8.65445 1974 ft 159 kts 347°
2026-05-04 20:28 41.15651 -8.65729 1783 ft 159 kts 347°
2026-05-04 20:29 41.16740 -8.66012 1551 ft 159 kts 347°
2026-05-04 20:29 41.17820 -8.66295 1346 ft 156 kts 347°
2026-05-04 20:29 41.18852 -8.66563 1157 ft 146 kts 346°
2026-05-04 20:29 41.19854 -8.66827 1002 ft 147 kts 347°
2026-05-04 20:30 41.20846 -8.67080 784 ft 143 kts 347°
2026-05-04 20:30 41.21801 -8.67343 587 ft 139 kts 347°
2026-05-04 20:30 41.22743 -8.67591 409 ft 137 kts 348°
2026-05-04 20:30 41.23672 -8.67825 241 ft 134 kts 347°
2026-05-04 20:31 41.24454 -8.68035 207 ft 86 kts 348°
2026-05-04 20:31 41.24870 -8.68145 195 ft 50 kts 349°
2026-05-04 20:31 41.25060 -8.68171 186 ft 34 kts
2026-05-04 20:31 41.25227 -8.68126 180 ft 11 kts 18°
2026-05-04 20:32 41.25289 -8.68081 178 ft 11 kts 66°
2026-05-04 20:32 41.25249 -8.68011 182 ft 11 kts 167°
2026-05-04 20:32 41.25177 -8.67992 186 ft 11 kts 169°
2026-05-04 20:32 41.25083 -8.67967 190 ft 17 kts 168°
2026-05-04 20:33 41.24951 -8.67932 194 ft 20 kts 169°
2026-05-04 20:33 41.24823 -8.67868 207 ft 20 kts 148°
2026-05-04 20:33 41.24697 -8.67811 217 ft 19 kts 169°
2026-05-04 20:33 41.24570 -8.67777 220 ft 18 kts 169°
2026-05-04 20:34 41.24446 -8.67745 222 ft 18 kts 168°
2026-05-04 20:34 41.24328 -8.67712 228 ft 17 kts 162°
2026-05-04 20:34 41.24256 -8.67622 236 ft 13 kts 125°
2026-05-04 20:34 41.24178 -8.67568 237 ft 13 kts 169°
2026-05-04 20:35 41.24092 -8.67546 237 ft 12 kts 168°
2026-05-04 20:35 41.24010 -8.67525 237 ft 12 kts 169°
2026-05-04 20:35 41.23927 -8.67504 237 ft 12 kts 168°
2026-05-04 20:35 41.23849 -8.67482 238 ft 12 kts 169°
2026-05-04 20:36 41.23784 -8.67465 238 ft 9 kts 167°
2026-05-04 20:36 41.23757 -8.67433 239 ft 5 kts 88°
2026-05-04 20:36 41.23773 -8.67397 241 ft 3 kts 52°
2026-05-04 20:36 41.23784 -8.67379 242 ft 2 kts 49°
2026-05-04 20:37 41.23791 -8.67369 243 ft 1 kts 49°
2026-05-04 20:37 41.23792 -8.67367 243 ft 0 kts 49°
2026-05-04 20:44 41.23792 -8.67368 243 ft 0 kts 49°